DW5656 Weather Reports


time (UTC)temp
F
wind
direction
speed
knots
gust
knots
rain 1hr
in
rain 24hr
in
rain mn
in
humidity
%
barometer
mb
20260831032619 74 232 0.0 0.9 0.00 0.00 0.00 74 1016.2
20260831031719 74 232 0.0 0.9 0.00 0.00 0.00 74 1016.2
20260831030819 73 232 0.9 1.7 0.00 0.00 0.00 73 1016.2
20260831025919 74 232 0.9 1.7 0.00 0.00 0.00 73 1016.3
20260831025019 74 232 0.9 2.6 0.00 0.00 0.00 73 1016.4
20260831024140 74 231 0.9 2.6 0.00 0.00 0.00 73 1016.4
20260831023240 74 229 0.9 2.6 0.00 0.00 0.00 72 1016.4
20260831022319 74 229 0.9 3.5 0.00 0.00 0.00 72 1016.4
20260831021440 74 229 0.9 2.6 0.00 0.00 0.00 72 1016.3
20260831020518 74 229 0.9 2.6 0.00 0.00 0.00 71 1016.3
20260831015619 74 229 0.9 2.6 0.00 0.00 0.00 71 1016.3
20260831014718 74 229 0.9 1.7 0.00 0.00 0.00 71 1016.3
20260831013818 75 229 0.9 1.7 0.00 0.00 0.00 70 1016.3
20260831012918 75 229 1.7 3.5 0.00 0.00 0.00 70 1016.3
20260831012018 75 232 0.9 3.5 0.00 0.00 0.00 69 1016.3
20260831011118 75 232 0.9 3.5 0.00 0.00 0.00 69 1016.3
20260831010218 75 232 1.7 2.6 0.00 0.00 0.00 68 1016.3
20260831005318 75 227 1.7 4.3 0.00 0.00 0.00 67 1016.2
20260831004418 76 213 0.9 3.5 0.00 0.00 0.00 66 1016.3
20260831003518 76 213 0.9 2.6 0.00 0.00 0.00 64 1016.2
20260831002639 76 202 0.9 2.6 0.00 0.00 0.00 64 1016.3
20260831001718 76 191 1.7 3.5 0.00 0.00 0.00 63 1016.2
20260831000839 77 197 1.7 3.5 0.00 0.00 0.00 62 1016.1
20260830235918 77 181 1.7 3.5 0.00 0.00 0.00 61 1016.1
20260830235018 77 178 1.7 3.5 0.00 0.00 0.00 59 1016.1
20260830234139 78 209 1.7 3.5 0.00 0.00 0.00 59 1016.1
20260830233218 78 209 0.9 2.6 0.00 0.00 0.00 58 1016.1
20260830232318 78 209 0.0 1.7 0.00 0.00 0.00 58 1015.9
20260830231418 78 209 0.9 1.7 0.00 0.00 0.00 58 1015.8
20260830230518 78 209 0.9 1.7 0.00 0.00 0.00 57 1015.8
20260830225618 79 209 0.9 1.7 0.00 0.00 0.00 57 1015.8
20260830224718 79 209 1.7 2.6 0.00 0.00 0.00 57 1015.7
20260830223818 79 209 1.7 2.6 0.00 0.00 0.00 56 1015.7
20260830222918 80 209 1.7 2.6 0.00 0.00 0.00 56 1015.6
20260830222018 80 209 1.7 3.5 0.00 0.00 0.00 55 1015.6
20260830221118 80 212 1.7 3.5 0.00 0.00 0.00 54 1015.6
20260830220218 81 215 1.7 5.2 0.00 0.00 0.00 54 1015.5
20260830215318 81 237 2.6 6.1 0.00 0.00 0.00 53 1015.5
20260830214418 82 230 2.6 6.1 0.00 0.00 0.00 51 1015.3
20260830213539 82 219 1.7 4.3 0.00 0.00 0.00 50 1015.4
20260830212618 83 224 3.5 7.0 0.00 0.00 0.00 50 1015.3
20260830211718 83 249 3.5 7.0 0.00 0.00 0.00 49 1015.3
20260830210818 83 265 3.5 9.6 0.00 0.00 0.00 49 1015.2
20260830205918 83 255 2.6 10.4 0.00 0.00 0.00 49 1015.2
20260830205018 83 222 1.7 4.3 0.00 0.00 0.00 49 1015.3
20260830204118 84 226 2.6 4.3 0.00 0.00 0.00 49 1015.3
20260830203239 84 219 3.5 6.1 0.00 0.00 0.00 49 1015.3
20260830202318 85 217 2.6 6.1 0.00 0.00 0.00 49 1015.3
20260830201417 85 225 2.6 6.1 0.00 0.00 0.00 48 1015.2
20260830200517 86 239 2.6 8.7 0.00 0.00 0.00 47 1014.9
20260830195617 86 236 3.5 7.0 0.00 0.00 0.00 46 1014.9
20260830194717 86 240 4.3 7.8 0.00 0.00 0.00 45 1014.8
20260830193817 87 238 3.5 9.6 0.00 0.00 0.00 44 1014.7
20260830192917 88 229 3.5 7.8 0.00 0.00 0.00 43 1014.6
20260830192018 88 231 2.6 7.8 0.00 0.00 0.00 41 1014.6
20260830191138 89 238 4.3 7.8 0.00 0.00 0.00 40 1014.4
20260830190217 90 230 4.3 8.7 0.00 0.00 0.00 39 1014.3
20260830185317 91 231 3.5 7.8 0.00 0.00 0.00 38 1014.3
20260830184417 91 234 3.5 7.8 0.00 0.00 0.00 37 1014.2
20260830183517 92 240 4.3 8.7 0.00 0.00 0.00 36 1014.3
20260830182617 92 230 5.2 8.7 0.00 0.00 0.00 36 1014.3
20260830181717 92 226 5.2 9.6 0.00 0.00 0.00 36 1014.3
20260830180817 93 232 4.3 9.6 0.00 0.00 0.00 36 1014.2
20260830175917 93 237 5.2 9.6 0.00 0.00 0.00 37 1014.2
20260830175017 93 228 4.3 11.3 0.00 0.00 0.00 37 1014.3
20260830174118 93 222 4.3 9.6 0.00 0.00 0.00 39 1014.3
20260830173238 93 220 4.3 10.4 0.00 0.00 0.00 38 1014.3
20260830172317 94 218 5.2 10.4 0.00 0.00 0.00 37 1014.3
20260830171417 94 229 4.3 10.4 0.00 0.00 0.00 35 1014.3
20260830170539 95 225 4.3 7.8 0.00 0.00 0.00 33 1014.3
20260830165617 95 223 4.3 10.4 0.00 0.00 0.00 32 1014.4
20260830164718 95 221 4.3 10.4 0.00 0.00 0.00 30 1014.4
20260830163817 95 222 5.2 11.3 0.00 0.00 0.00 31 1014.4
20260830162917 94 233 7.0 10.4 0.00 0.00 0.00 31 1014.5
20260830162017 94 242 6.1 14.8 0.00 0.00 0.00 31 1014.5
20260830161117 96 227 4.3 10.4 0.00 0.00 0.00 31 1014.5
20260830160217 96 216 3.5 10.4 0.00 0.00 0.00 31 1014.4
20260830155317 96 210 3.5 8.7 0.00 0.00 0.00 31 1014.4
20260830154417 96 227 3.5 7.8 0.00 0.00 0.00 31 1014.4
20260830153538 96 214 2.6 7.8 0.00 0.00 0.00 32 1014.5
20260830152617 96 174 2.6 8.7 0.00 0.00 0.00 32 1014.6
20260830151717 96 181 2.6 7.8 0.00 0.00 0.00 30 1014.6
20260830150817 95 228 3.5 10.4 0.00 0.00 0.00 31 1014.6
20260830145917 95 178 2.6 10.4 0.00 0.00 0.00 31 1014.7
20260830145017 95 191 2.6 8.7 0.00 0.00 0.00 31 1014.9
20260830144117 94 179 3.5 7.8 0.00 0.00 0.00 32 1015.0
20260830143217 94 179 3.5 8.7 0.00 0.00 0.00 32 1015.2
20260830142317 95 165 2.6 6.1 0.00 0.00 0.00 33 1015.2
20260830141416 95 250 2.6 6.1 0.00 0.00 0.00 34 1015.3
20260830140516 94 245 2.6 7.0 0.00 0.00 0.00 33 1015.5
20260830135616 94 252 2.6 6.1 0.00 0.00 0.00 34 1015.6
20260830134716 94 223 2.6 6.1 0.00 0.00 0.00 33 1015.8
20260830133837 94 197 2.6 6.1 0.00 0.00 0.00 34 1015.8
20260830132916 93 240 3.5 7.8 0.00 0.00 0.00 35 1016.0
20260830132037 93 230 2.6 7.8 0.00 0.00 0.00 35 1016.0
20260830131137 93 163 3.5 5.2 0.00 0.00 0.00 35 1016.1
20260830130216 93 185 3.5 9.6 0.00 0.00 0.00 34 1016.2
20260830125317 93 217 1.7 9.6 0.00 0.00 0.00 34 1016.3
20260830124416 92 269 1.7 3.5 0.00 0.00 0.00 35 1016.4
20260830123516 91 224 2.6 5.2 0.00 0.00 0.00 36 1016.4
20260830122617 90 283 2.6 5.2 0.00 0.00 0.00 37 1016.4
20260830121716 90 146 2.6 6.1 0.00 0.00 0.00 37 1016.5
20260830120816 89 147 1.7 6.1 0.00 0.00 0.00 38 1016.5
20260830115937 90 10 1.7 6.1 0.00 0.00 0.00 38 1016.7
20260830115016 89 296 0.9 3.5 0.00 0.00 0.00 38 1016.7
20260830114116 89 198 1.7 3.5 0.00 0.00 0.00 38 1016.9
20260830113238 88 260 2.6 6.1 0.00 0.00 0.00 39 1016.9
20260830112316 87 253 1.7 5.2 0.00 0.00 0.00 39 1017.0
20260830111416 87 238 1.7 6.1 0.00 0.00 0.00 41 1017.1
20260830110537 87 178 1.7 5.2 0.00 0.00 0.00 42 1017.0
20260830105616 86 268 1.7 5.2 0.00 0.00 0.00 43 1017.1
20260830104737 85 282 1.7 5.2 0.00 0.00 0.00 45 1017.1
20260830103837 85 236 1.7 3.5 0.00 0.00 0.00 44 1017.2
20260830102916 85 137 1.7 4.3 0.00 0.00 0.00 44 1017.2
20260830102016 84 98 1.7 6.1 0.00 0.00 0.00 47 1017.2
20260830101116 84 335 0.9 3.5 0.00 0.00 0.00 48 1017.1
20260830100216 83 357 0.9 2.6 0.00 0.00 0.00 49 1017.2
20260830095316 82 5 1.7 4.3 0.00 0.00 0.00 50 1017.2
20260830094416 82 91 1.7 4.3 0.00 0.00 0.00 51 1017.3
20260830093516 81 84 1.7 5.2 0.00 0.00 0.00 52 1017.3
20260830092616 81 32 0.9 3.5 0.00 0.00 0.00 52 1017.3
20260830091716 80 52 1.7 2.6 0.00 0.00 0.00 53 1017.2
20260830090837 80 71 1.7 3.5 0.00 0.00 0.00 54 1017.3
20260830085916 79 90 0.9 3.5 0.00 0.00 0.00 54 1017.2
20260830085016 79 38 0.9 3.5 0.00 0.00 0.00 55 1017.2
20260830084137 78 14 0.9 2.6 0.00 0.00 0.00 56 1017.3
20260830083216 77 13 0.9 1.7 0.00 0.00 0.00 57 1017.3
20260830082337 76 13 0.9 2.6 0.00 0.00 0.00 59 1017.2
20260830081438 75 12 0.9 2.6 0.00 0.00 0.00 60 1017.3
20260830080515 74 11 1.7 2.6 0.00 0.00 0.00 62 1017.3
20260830075616 72 11 1.7 3.5 0.00 0.00 0.00 62 1017.3
20260830074716 72 9 1.7 3.5 0.00 0.00 0.00 64 1017.3
20260830073815 71 27 2.6 4.3 0.00 0.00 0.00 64 1017.3
20260830072937 70 11 2.6 3.5 0.00 0.00 0.00 65 1017.2
20260830072015 70 34 2.6 3.5 0.00 0.00 0.00 66 1017.1
20260830071115 69 356 2.6 3.5 0.00 0.00 0.00 67 1016.9
20260830070236 69 339 2.6 4.3 0.00 0.00 0.00 68 1016.9
20260830065337 69 8 2.6 4.3 0.00 0.00 0.00 68 1016.7
20260830064415 69 349 1.7 3.5 0.00 0.00 0.00 68 1016.6
20260830063536 69 349 2.6 4.3 0.00 0.00 0.00 68 1016.6
20260830062615 69 357 1.7 4.3 0.00 0.00 0.00 68 1016.6
20260830061715 69 351 1.7 4.3 0.00 0.00 0.00 68 1016.6
20260830060815 69 341 1.7 3.5 0.00 0.00 0.00 68 1016.5
20260830055915 69 316 0.9 2.6 0.00 0.00 0.00 68 1016.6
20260830055015 69 299 0.9 2.6 0.00 0.00 0.00 69 1016.5
20260830054115 69 294 1.7 2.6 0.00 0.00 0.00 70 1016.4
20260830053215 70 291 1.7 2.6 0.00 0.00 0.00 70 1016.4
20260830052315 70 274 0.9 2.6 0.00 0.00 0.00 70 1016.4
20260830051415 71 254 0.9 2.6 0.00 0.00 0.00 70 1016.3
20260830050536 71 250 0.9 1.7 0.00 0.00 0.00 70 1016.3
20260830045615 71 250 0.0 1.7 0.00 0.00 0.00 70 1016.3
20260830044715 72 250 0.0 0.9 0.00 0.00 0.00 69 1016.3
20260830043815 72 250 0.0 1.7 0.00 0.00 0.00 68 1016.3
20260830042915 72 250 0.9 1.7 0.00 0.00 0.00 67 1016.2
20260830042015 72 250 0.0 1.7 0.00 0.00 0.00 68 1016.1
20260830041115 72 250 0.0 0.9 0.00 0.00 0.00 69 1016.1
20260830040215 72 250 0.0 0.9 0.00 0.00 0.00 69 1016.1
20260830035315 72 250 0.9 1.7 0.00 0.00 0.00 68 1016.1
20260830034415 72 250 0.0 0.9 0.00 0.00 0.00 68 1016.2
20260830033536 72 250 0.9 1.7 0.00 0.00 0.00 68 1016.3